www.pogodaiklimat.ru

Погода и климат >> Архив погоды >> Грузия >> Зугдиди


ПОГОДА в Зугдиди

АРХИВ ПОГОДЫ в Зугдиди

Время (UTC), дата Ветер
(напр.,м/с)
 
Видим.   Явления Облачность Т
(С)
Тd
(С)
f
(%)
Тe
(С)
Тes
(С)
Комфортность P
(гПа)
Po
(гПа)
Тmin
(С)
Tmax
(С)
R
(мм)
R24
(мм)
S
(см)
06 12.08 ЮВ 3 н/о н/о +24.3 +18.9 72 +29 +29 душно 1022.0 1003.1 +15.8
09 12.08 СЗ 4 н/о н/о +26.3 +16.4 54 +30 +30 душно 1021.1 1002.4
12 12.08 З 5 н/о н/о +27.2 +19.2 62 +33 +33 очень
душно
1019.9 1001.2
15 12.08 З 6 н/о н/о +25.8 +18.7 65 +31 +31 очень
душно
1020.0 1001.3 +29.3
18 12.08 В 1 н/о н/о +21.4 +19.5 89 +26 +26 душно 1021.0 1002.0 +29.3
21 12.08 штиль 0 н/о н/о +19.9 +19.1 95 +23 +23 комфорт 1021.0 1001.9
00 13.08 СВ 2 н/о н/о +18.2 +18.1 99 +19 +19 по сезону 1020.9 1001.6
03 13.08 СВ 2 н/о н/о +17.9 +17.7 99 +18 +18 прохладно 1020.3 1001.1
06 13.08 В 2 н/о н/о +26.1 +20.3 70 +32 +32 очень
душно
1019.1 1000.4 +17.7
09 13.08 СЗ 3 н/о н/о +28.5 +20.1 60 +35 +35 очень
душно
1017.6 999.0
12 13.08 З 7 н/о н/о +29.5 +21.4 62 +37 +37 очень
душно
1016.2 997.8
15 13.08 З 6 н/о н/о +26.8 +20.7 69 +33 +33 очень
душно
1016.1 997.5 +30.5
18 13.08 ЮЗ 1 н/о н/о +23.0 +21.1 89 +31 +31 очень
душно
1017.3 998.4 +30.5
21 13.08 СВ 2 н/о н/о +21.3 +20.7 96 +27 +27 душно 1017.0 998.0
00 14.08 С 1 н/о н/о +19.0 +19.2 100 +22 +22 комфорт 1015.9 996.8
03 14.08 СВ 1 н/о н/о +18.1 +18.2 100 +19 +19 прохладно 1015.1 995.9
06 14.08 СЗ 3 н/о н/о +26.2 +22.3 79 +34 +34 очень
душно
1015.0 996.3 +18.0
09 14.08 З 4 н/о н/о +31.2 +21.1 55 +39 +39 очень
душно
1013.3 995.0
12 14.08 ЮЗ 4 н/о н/о +32.5 +24.4 62 +45 +45 опасность
перегрева
1011.9 993.7
15 14.08 З 5 н/о н/о +28.2 +21.9 69 +36 +36 очень
душно
1011.5 993.0 +34.0
18 14.08 З 2 н/о н/о +23.9 +22.5 92 +31 +31 очень
душно
1012.4 993.7 +34.0
21 14.08 СВ 2 н/о н/о +21.5 +21.4 99 +27 +27 душно 1012.1 993.2
00 15.08 С 2 н/о н/о +19.9 +20.1 100 +24 +24 комфорт 1011.5 992.5
03 15.08 ЮВ 2 н/о н/о +19.0 +18.9 99 +21 +21 комфорт 1011.2 992.2
06 15.08 З 3 н/о н/о +29.0 +21.8 65 +37 +37 очень
душно
1010.4 992.0 +18.9
09 15.08 В 3 н/о н/о +33.2 +20.1 46 +39 +39 очень
душно
1009.4 991.2
12 15.08 В 3 н/о н/о +36.2 +20.7 41 +43 +43 опасность
перегрева
1008.4 990.4
15 15.08 З 5 н/о н/о +29.1 +22.5 68 +38 +38 очень
душно
1009.7 991.3 +37.3
18 15.08 ЮЗ 1 н/о н/о +24.7 +23.1 91 +33 +33 очень
душно
1012.5 993.9 +37.3
21 15.08 штиль 0 н/о н/о +23.7 +22.4 92 +31 +31 очень
душно
1013.4 994.7
00 16.08 В 1 н/о н/о +22.1 +22.1 100 +29 +29 очень
душно
1012.5 993.6
03 16.08 штиль 0 н/о н/о +21.0 +21.1 100 +26 +26 душно 1010.9 992.0
06 16.08 СЗ 3 н/о н/о +26.8 +23.2 81 +36 +36 очень
душно
1010.1 991.6 +20.7
09 16.08 З 4 н/о н/о +29.9 +22.7 65 +39 +39 очень
душно
1010.1 991.8
12 16.08 З 4 н/о н/о +28.7 +22.9 71 +38 +38 очень
душно
1010.0 991.6
15 16.08 ЮЗ 3 н/о н/о +26.0 +23.4 86 +35 +35 очень
душно
1011.3 992.7 +31.2
18 16.08 З 1 н/о н/о +24.7 +23.2 91 +33 +33 очень
душно
1014.1 995.4 +31.2
21 16.08 штиль 0 н/о н/о +23.9 +23.3 96 +32 +32 очень
душно
1014.7 995.9 0.1
00 17.08 ЮВ 3 н/о н/о +22.2 +22.3 100 +30 +30 очень
душно
1014.6 995.7 1
03 17.08 В 3 н/о н/о +21.9 +22.0 100 +29 +29 очень
душно
1015.0 996.1
06 17.08 В 5 н/о н/о +21.8 +21.9 100 +28 +28 душно 1016.0 997.1 +21.8 7
09 17.08 ЮВ 3 н/о н/о +22.7 +22.4 98 +31 +31 очень
душно
1016.2 997.3 0.8
12 17.08 В 2 н/о н/о +23.2 +21.8 92 +31 +31 очень
душно
1015.5 996.7 0.8
15 17.08 ЮВ 3 н/о н/о +22.6 +21.6 94 +30 +30 очень
душно
1015.0 996.2 +26.0
18 17.08 ЮВ 4 н/о н/о +22.3 +21.2 93 +29 +29 очень
душно
1015.7 996.8 +23.7 0.9
21 17.08 В 1 н/о н/о +22.0 +21.0 94 +28 +28 душно 1014.7 995.8
00 18.08 С 2 н/о н/о +20.8 +20.9 100 +27 +27 душно 1013.9 994.9
03 18.08 штиль 0 н/о н/о +20.5 +20.7 100 +25 +25 комфорт 1013.3 994.4
06 18.08 СЗ 2 н/о н/о +26.4 +21.0 72 +33 +33 очень
душно
1012.4 993.8 +20.5
09 18.08 З 4 н/о н/о +28.4 +22.2 69 +37 +37 очень
душно
1012.0 993.6
12 18.08 З 6 н/о н/о +28.4 +22.5 70 +37 +37 очень
душно
1013.5 995.1
15 18.08 СЗ 3 н/о н/о +26.0 +22.8 83 +35 +35 очень
душно
1016.0 997.3 +29.3
18 18.08 штиль 0 н/о н/о +23.2 +22.1 94 +32 +32 очень
душно
1017.7 998.8 +29.3
21 18.08 ЮВ 2 н/о н/о +22.1 +22.2 100 +29 +29 очень
душно
1018.1 999.2
00 19.08 ЮВ 2 н/о н/о +22.3 +22.2 99 +30 +30 очень
душно
1018.1 999.2
03 19.08 ЮВ 3 н/о н/о +21.9 +21.4 97 +28 +28 душно 1019.3 1000.3

 

Местоположение метеостанции Зугдиди (Грузия): широта 42.50 долгота 41.88 высота над уровнем моря 117 м.

В архиве по умолчанию представлена погода в Зугдиди за последнюю неделю. Архивные данные за месяц целиком и за предыдущие месяцы, начиная с января 2011 года, Вы можете получить, выбрав интересующий диапазон дат из раскрывающегося списка и нажав кнопку "Ввод!".


*Определитесь, кто Вы:
робот инопланетянин человек

Внимание! Время в таблицах - всемирное. Для получения местного времени необходимо прибавить поправку, которая равна 4 ч.

Смотрите также архив погоды в соседних городах и на ближайших метеорологических станциях:

Погода в Кутаиси (Грузия) (67 км)
Погода на Клухорском Перевале (Карачаево-Черкессия, Россия) (68 км)
Погода в Чегете (Кабардино-Балкария, Россия) (96 км)
Погода в Терсколе (Кабардино-Балкария, Россия) (98 км)
Погода на Леднике Гарабаши (Карачаево-Черкессия, Россия) (99 км)
Погода в Домбае (Карачаево-Черкессия, Россия) (99 км)
Погода в Батуми (Грузия) (101 км)
Погода в Сакаре (Грузия) (103 км)
Погода в Амролаури (Грузия) (104 км)
Погода в Теберде (Карачаево-Черкессия, Россия) (106 км)

Пояснения к столбцам:

Ветер - указаны скорость ветра в м/с - средняя за 10 мин, порывы в срок и между сроками (в фигурных скобках) и направление, откуда дует ветер: С - северный, СВ - северо-восточный, В - восточный, ЮВ - юго-восточный, Ю - южный, ЮЗ - юго-западный, З - западный, СЗ - северо-западный.
Видимость - горизонтальная дальность видимости в метрах или километрах. При видимости от 1 до 10 км при отсутствии осадков обычно наблюдается дымка, при ухудшении видимости до 1 км и менее - туман. В сухую погоду видимость может ухудшаться дымом, пылью или мглою.
Явления - указаны атмосферные явления, наблюдавшиеся в срок или в последний час перед сроком; фигурными скобками обозначены явления, наблюдавшиеся между сроками (за 1-3 часа до срока); квадратными скобками обозначены град или гололедные отложения с указанием их диаметра в мм.
Облачность - указаны через наклонную черту общая и нижняя облачность в баллах и высота нижней границы облаков в метрах; квадратными скобками обозначены формы облаков: Ci - перистые, Cs - перисто-слоистые, Cc - перисто-кучевые, Ac - высококучевые, As - высокослоистые, Sc - слоисто-кучевые, Ns - слоисто-дождевые, Cu - кучевые, Cb - кучево-дождевые. Подробнее классификацию облаков см. в Атласе облаков (PDF).
T - Температура воздуха - температура, измеренная на высоте 2 м над землей.
Td - Температура точки росы - температура, при понижении до которой содержащийся в воздухе водяной пар достигнет насыщения.
f - Относительная влажность воздуха - влажноcть воздуха, измеренная на высоте 2 м над землей.
Te - Эффективная температура - температура, которую ощущает одетый по сезону человек в тени. Характеристика душности погоды. При расчете учитывается влияние влажности воздуха и скорости ветра на теплоощущения человека.
Tes - Эффективная температура на солнце - температура, которую ощущает человек, с поправкой на солнечный нагрев. Характеристика знойности погоды. Зависит от высоты солнца над горизонтом, облачности и скорости ветра. Ночью, в пасмурную погоду, а также при ветре 12 м/с и более поправка равна нулю.
P - Атмосферное давление - приведенное к уровню моря атмосферное давление.
Po - Атмосферное давление - измеренное на уровне метеостанции атмосферное давление.
Tmin - Минимальная температура - минимум температуры воздуха на высоте 2 м над землей.
Tmax - Максимальная температура - максимум температуры воздуха на высоте 2 м над землей.
R - Количество осадков - Количество выпавших осадков за период времени, мм. При наведении курсора мыши на число - период времени, за который выпало указанное количество осадков.
R24 - Количество осадков - Количество выпавших осадков за 24 часа, мм.
S - Снежный покров - Высота снежного покрова, см. При наведении курсора мыши на число - состояние снежного покрова и степень покрытия местности в баллах.